Regional Weather Roundup
Issued by NWS

Home | Current Version | Previous Version | Graphics & Text | Print | Product List | Glossary On
Versions: 1 2 3 4 5 6 7 8 9 10 11 12 13 14 15 16 17 18 19 20 21 22 23 24 25 26 27 28 29 30 31 32 33 34 35 36 37 38 39 40 41 42 43 44 45 46 47 48 49 50
000
ASUS43 KMKX 251121
RWRWI

WISCONSIN REGIONAL WEATHER ROUNDUP
NATIONAL WEATHER SERVICE MILWAUKEE/SULLIVAN WI
500 AM CST SUN JAN 25 2015

NOTE: "FAIR" INDICATES FEW OR NO CLOUDS BELOW 12,000 FEET WITH NO
SIGNIFICANT WEATHER AND/OR OBSTRUCTIONS TO VISIBILITY.

WIZ001-002-006>008-014>016-023>028-251200-
NORTHWEST WISCONSIN

CITY           SKY/WX    TMP DP  RH WIND       PRES   REMARKS
SUPERIOR ARPT  CLOUDY    22  15  73 NE15G21   29.97R WCI   9
ASHLAND        FLURRIES  18  11  74 NE5       29.96R WCI  11
HAYWARD        CLOUDY    15   7  70 NE7       29.91R WCI   5
SIREN          CLOUDY    20  13  73 E9G16     29.92R WCI  10
CUMBERLAND     CLOUDY    16   9  73 NE15      29.87R WCI   1
RICE LAKE      CLOUDY    17  11  77 N14       29.89R WCI   3
CHETEK         CLOUDY    19  13  77 N13G20    29.87R WCI   6
LADYSMITH      MOCLDY    17  10  76 NE9       29.88R WCI   5
EAU CLAIRE     CLOUDY    26  18  71 NE12      29.82R WCI  16
MENOMONIE      CLOUDY    27  19  73 NE14G21   29.83R WCI  15
NEW RICHMOND   CLOUDY    23  16  73 NE16      29.86R WCI  10
OSCEOLA        CLOUDY    22  15  73 N15       29.91R WCI   9
$$

WIZ003>005-009-010-017-018-251200-
NORTH CENTRAL WISCONSIN

CITY           SKY/WX    TMP DP  RH WIND       PRES   REMARKS
MANITOWISH WTR FLURRIES  11   8  88 NE6       29.87R WCI   1
ARBOR VITAE    FLURRIES  14  10  83 NE3       29.86R
WOODRUFF       FLURRIES  14  10  83 NE3       29.86R
RHINELANDER    CLOUDY    14   7  73 NE9       29.85R WCI   2
EAGLE RIVER    FLURRIES  14   7  74 NE9       29.86R WCI   2
LAND O LAKES   LGT SNOW  14  10  84 NE6       29.88R WCI   5
PHILLIPS       CLOUDY    11   7  81 NE6       29.86R WCI   2
TOMAHAWK       CLOUDY    14   8  77 CALM      29.85R
MEDFORD        CLOUDY    16  10  77 NE13      29.82R WCI   2
MERRILL        CLOUDY    16  10  76 NE6       29.85R WCI   8
$$

WIZ029-030-035-036-043>047-251200-
CENTRAL WISCONSIN

CITY           SKY/WX    TMP DP  RH WIND       PRES   REMARKS
WAUSAU         CLOUDY    18  10  71 E13G20    29.83R WCI   5
MOSINEE        CLOUDY    19  14  79 E13       29.83R WCI   7
MARSHFIELD     CLOUDY    24  17  74 NE14      29.80R WCI  12
STEVENS POINT  CLOUDY    18  10  70 NE14      29.84R WCI   4
WAUPACA        CLOUDY    23  13  66 NE12G17   29.86R WCI  12
WAUTOMA        CLOUDY    22  16  78 NE13      29.84R WCI  10
WISC RAPIDS    CLOUDY    21  11  65 NE14      29.83R WCI   8
CAMP DOUGLAS   CLOUDY    24  24  99 E10       29.80R WCI  13
$$

WIZ011>013-019>022-031-037>040-048>050-251200-
NORTHEAST WISCONSIN

CITY           SKY/WX    TMP DP  RH WIND       PRES   REMARKS
ANTIGO         CLOUDY    14   8  78 NE13      29.84R WCI   0
SHAWANO        CLOUDY    22  13  69 NE15      29.88R WCI   9
OCONTO         CLOUDY    19  11  69 MISG      29.91R
STURGEON BAY   CLOUDY    18   9  68 NE14G20   29.92R WCI   4
GREEN BAY      MOCLDY    20  11  68 NE22G28   29.88R WCI   3
MANITOWOC      CLOUDY    23  17  78 N12       29.85R WCI  12
APPLETON       NOT AVBL
CLINTONVILLE   CLOUDY    21  12  68 NE14      29.87R WCI   8
OSHKOSH        CLOUDY    22  13  68 NE15      29.84R WCI   9
$$

WIZ032>034-041-042-053>061-251200-
SOUTHWEST WISCONSIN

CITY           SKY/WX    TMP DP  RH WIND       PRES   REMARKS
LA CROSSE      CLOUDY    31  24  75 E12       29.79R WCI  22
SPARTA         CLOUDY    26  22  82 E14G21    29.80R WCI  15
VIROQUA        CLOUDY    27  27 100 NE22G28   29.73R WCI  13
BOSCOBEL       CLOUDY    32  27  81 E13G24    29.73R WCI  22
PRAIRIE DU CHI DRIZZLE   34  30  83 E13G18    29.70R WCI  25
PLATTEVILLE    CLOUDY    32  30  93 NE21G30   29.67R WCI  20
$$

WIZ056-057-062-063-064-067-068-251200-
SOUTH CENTRAL WISCONSIN

CITY           SKY/WX    TMP DP  RH WIND       PRES   REMARKS
REEDSBURG      MIX PCPN  24  18  80 NE13G23   29.78R WCI  12
BARABOO/DELLS  FLURRIES  23  18  81 NE15G24   29.78R WCI  10
LONE ROCK      CLOUDY    28  23  81 E16G26    29.76R WCI  16
MINERAL POINT  CLOUDY    32  28  86 E20G30    29.68R WCI  20
MADISON        FLURRIES  26  21  81 NE21G26   29.76R WCI  12
MIDDLETON      CLOUDY    28  24  83 NE17G23   29.76R WCI  16
WATERTOWN      FLURRIES  26  22  84 NE14G22   29.76R WCI  15
MONROE         MIX PCPN  30  28  93 NE16G26   29.69R WCI  19
JANESVILLE     FLURRIES  32  30  93 NE18G24   29.72R WCI  20
$$

WIZ051-052-058>065-066-070>072-251200-
SOUTHEAST WISCONSIN

CITY           SKY/WX    TMP DP  RH WIND       PRES   REMARKS
MILWAUKEE      LGT SNOW  29  24  82 NE22G32   29.77R WCI  15
WAUKESHA       LGT SNOW  27  23  86 NE14G29   29.76R WCI  15
MILWAUKEE/TIMM LGT SNOW  28  23  80 NE16G23   29.78S WCI  17
RACINE         LGT SNOW  29  24  82 NE22G29   29.77R WCI  15
BURLINGTON     CLOUDY    28  24  87 NE15G22   29.74R WCI  16
KENOSHA        LGT SNOW  30  27  88 NE18G28   29.74R FOG     WCI  18
FOND DU LAC    CLOUDY    23  16  74 NE17      29.84R WCI   9
SHEBOYGAN      CLOUDY    24  17  74 N14       29.82R WCI  12
WEST BEND      CLOUDY    27  21  80 NE13G21   29.79R WCI  16
JUNEAU         CLOUDY    24  19  81 NE14G22   29.79S WCI  12
$$

LSZ147-162-251200-
LAKE SUPERIOR

STATION/POSITION TIME  TEMP    WIND        PRES    WAVE
                       AIR SEA DIR/SP/G            HT/PER
                 (UTC) (F)     (DEG/KT/KT) (MB)    (FT/S)
DEVILS ISLAND    1100   20      40/ 18/ 24 1016.9R
PORT WING        1000   22      60/ 10/ 16 1014.9R
SAXON HARBOR     1040   20      80/  2/  7 1014.6R
$$

LMZ867-665-643>646-251200-
LAKE MICHIGAN

STATION/POSITION TIME  TEMP    WIND        PRES    WAVE
                       AIR SEA DIR/SP/G            HT/PER
                 (UTC) (F)     (DEG/KT/KT) (MB)    (FT/S)
NORTHPORT PIER   1004   17      30/ 14/ 21 1013.5R
SISTER BAY       1013   17      20/ 12/ 18   N/A
KEWAUNEE LAKESHO 1000   22      10/  8/ 16 1010.3R
SHEBOYGAN LAKESH 1100   27      40/ 25/ 28 1010.9R
PORT WASHINGTON  1026   29      40/ 19/ 27 1009.8R
MILWAUKEE LAKESH 1100   29      40/ 27/ 32   N/A
KENOSHA   LAKESH 1100   31      30/ 27/ 30 1007.1R
$$

TC  - TEMPERATURE IN CELSIUS
VSB - VISIBILITY IN STATUTE MILES
WCI - WIND CHILL INDEX
HX  - HEAT INDEX



USA.gov is the U.S. government's official web portal to all federal, state and local government web resources and services.